Starlink 33763

operational
NORAD ID: 63452 Int'l Des: 2025-069 Owner: SPXS Country: US Constellation: starlink
LEOCIRCULAR

Über Starlink 33763

Beschreibung wird geladen...

Live-Position

3D-Globus wird geladen...

Nächste Überflüge

Höhenverlauf

Altitude vs Time

uPlot chart will show altitude changes over time

Zweizeiliger Elementsatz

1 63452U 25069V 26033.45994041 .00019942 00000-0 68351-3 0 9993
2 63452 53.1605 305.9040 0001675 87.1288 272.9904 15.30206011 48011
Epoch: 2. Feb. 2026 • Age: 21 hours

Aktueller Status

Höhe 479.2 km
Geschwindigkeit 7.63 km/s
Subsatellitenpunkt 47.31°N, 106.69°E
Startdatum 4. Apr. 2025
Alter 0.8 years
Typ internet

Technische Details

Klassifizierung Payload
Masse 575.00 kg
Trockenmasse 530.00 kg
Gesamtmasse 575.00 kg
Länge 0.30 m
Durchmesser 4.10 m
Spannweite 29.00 m
Form Box + pan
Hersteller SPXS
Bus-Typ Starlink V2MO
Phasenstatus In Orbit
Besitzer/Staat SPXS/US

Große Konstellationen

Loading constellations...